PulseSat

PulseSat

COSMOS 2461 (735)

Last updated on Jan. 17, 2019, 2:58 a.m. UTC

1 36401U 10007B   19016.63153366 -.00000005  00000-0  10000-3 0  9992
2 36401  65.6858  45.2171 0004513  58.3229 280.9146  2.13102017 69097
UTC
Height (km)
Latitude
Longitude
Inclination
Orbital Period

Next 30 passes for location: Hong Kong

Rise time Rise Azimuth (degrees) Set time Set Azimuth (degrees) Duration Max altitude (degrees)

No matching passes for this satellites

PulseSat

PulseSat is the new satellites software and hardware trackering solution by Pulsely.
Satellite Two Line Element Set source: US Air Force Space Command

Download PulseSat for iOS
© 2017 Pulsely Limited